AMC-14

Last updated on Thu Jul 03 2025 00:02:44 GMT+0000 (Coordinated Universal Time)

1 32708U 08011A 25182.71391741 .00000072 00000+0 00000+0 0 9998 2 32708 23.5767 24.7332 0040431 6.7200 164.9077 1.00291177 64653
UTC large
Height (km)
Speed (km/s)
/
Latitude / Longitude
Inclination (degrees)
Orbital Period (minutes)
Azimuth
Elevation
Range (km)
Doppler Factor

Next 0 passes for location: London (51.5072 / 0.1276)

Sorry there are no passes over London.